Fairbanks, AK

1:58 AM AKDT on June 24, 2017 (GMT -0800)
Fairbanks International

Weather History for PAFA - November, 2012

Change the Weather History Date:

Friday, November 16, 2012

  Actual Average Record
Temperature  
Mean Temperature -16 °F 1 °F  
Max Temperature -5 °F 10 °F 44 °F (1916)
Min Temperature -27 °F -7 °F -41 °F (1969)
Degree Days  
Heating Degree Days 81 64  
Month to date heating degree days 1077 951  
Since 1 July heating degree days 3362 3210  
Cooling Degree Days 0 0  
Month to date cooling degree days 0 0  
Year to date cooling degree days 34 61  
Moisture  
Dew Point -26 °F    
Average Humidity 73    
Maximum Humidity 78    
Minimum Humidity 59    
Precipitation  
Precipitation 0.00 in 0.02 in 0.38 in (1985)
Month to date precipitation 0.29 0.37  
Year to date precipitation 9.43 9.87  
Snow  
Snow 0.00 in 0.50 in 5.40 in (1985)
Month to date snowfall 4.2 7.1  
Since 1 July snowfall 11.3 19.7  
Since 1 September snowfall 11.3 19.7  
Snow Depth 6.00 in    
Sea Level Pressure  
Sea Level Pressure 30.18 in    
Wind  
Wind Speed 1 mph (NNE)    
Max Wind Speed 8 mph    
Max Gust Speed -    
Visibility 9 miles    
Events      
T = Trace of Precipitation, MM = Missing Value Source: NWS Daily Summary

Daily Weather History Graph

Daily Weather History Graph

Search for Another Location

Airport or City:

Trip Planner

Search our weather history database for the weather conditions in past years. The results will help you decide how hot, cold, wet, or windy it might be!

Date:

Astronomy

Nov. 16, 2012 Rise Set
Actual Time 9:32 AM AKST 3:39 PM AKST
Civil Twilight 8:28 AM AKST 4:43 PM AKST
Nautical Twilight 7:25 AM AKST 5:46 PM AKST
Astronomical Twilight 6:27 AM AKST 6:44 PM AKST
Moon 12:58 PM AKST (11/16) 6:31 PM AKST (11/16)
Length of Visible Light 8h 14m
Length of Day
6h 07m
Waxing Crescent, 13% of the Moon is Illuminated
Nov 16
Waxing Crescent
Nov 20
First Quarter
Nov 28
Full
Dec 6
Last Quarter
Dec 12
New

Hourly Weather History & Observations

Time (AKST) Temp. Windchill Dew Point Humidity Pressure Visibility Wind Dir Wind Speed Gust Speed Precip Events Conditions
12:53 AM -18.0 °F - -23.1 °F 78% 30.13 in 10.0 mi Calm Calm - N/A   Partly Cloudy
1:53 AM -18.0 °F - -24.0 °F 74% 30.15 in 10.0 mi Calm Calm - N/A   Partly Cloudy
2:53 AM -20.0 °F - -25.1 °F 78% 30.16 in 10.0 mi Calm Calm - N/A   Partly Cloudy
3:53 AM -20.9 °F - -27.9 °F 70% 30.17 in 10.0 mi Calm Calm - N/A   Partly Cloudy
4:53 AM -23.1 °F - -29.0 °F 74% 30.18 in 10.0 mi Calm Calm - N/A   Partly Cloudy
5:53 AM -23.1 °F - -27.9 °F 78% 30.19 in 10.0 mi Calm Calm - N/A   Partly Cloudy
6:53 AM -23.1 °F - -29.0 °F 74% 30.21 in 10.0 mi Calm Calm - N/A   Partly Cloudy
7:53 AM -22.0 °F - -27.0 °F 77% 30.22 in 10.0 mi Calm Calm - N/A   Partly Cloudy
8:53 AM -25.1 °F - -31.0 °F 74% 30.23 in 6.0 mi Calm Calm - N/A   Scattered Clouds
9:53 AM -23.1 °F -34.2 °F -27.9 °F 78% 30.22 in 5.0 mi NE 3.5 mph - N/A   Scattered Clouds
10:53 AM -20.0 °F - -26.0 °F 74% 30.22 in 8.0 mi Calm Calm - N/A   Partly Cloudy
11:53 AM -17.0 °F - -24.0 °F 70% 30.21 in 8.0 mi Calm Calm - N/A   Partly Cloudy
12:53 PM -15.0 °F - -20.9 °F 75% 30.22 in 8.0 mi Calm Calm - N/A   Partly Cloudy
1:53 PM -14.1 °F -23.9 °F -20.0 °F 75% 30.21 in 7.0 mi SSE 3.5 mph - N/A   Partly Cloudy
2:53 PM -14.1 °F - -20.0 °F 75% 30.20 in 6.0 mi Calm Calm - N/A   Partly Cloudy
3:53 PM -20.9 °F - -26.0 °F 77% 30.20 in 10.0 mi Calm Calm - N/A   Partly Cloudy
4:53 PM -20.0 °F - -26.0 °F 74% 30.20 in 10.0 mi Calm Calm - N/A   Partly Cloudy
5:53 PM -22.0 °F -33.0 °F -27.9 °F 74% 30.19 in 10.0 mi North 3.5 mph - N/A   Clear
6:53 PM -20.9 °F -31.7 °F -27.0 °F 73% 30.18 in 10.0 mi North 3.5 mph - N/A   Clear
7:53 PM -24.0 °F - -31.0 °F 70% 30.17 in 10.0 mi Calm Calm - N/A   Clear
8:53 PM -25.1 °F -41.3 °F -31.0 °F 74% 30.16 in 10.0 mi North 5.8 mph - N/A   Clear
9:53 PM -23.1 °F - -29.0 °F 74% 30.14 in 10.0 mi Calm Calm - N/A   Clear
10:53 PM -20.0 °F -33.3 °F -25.1 °F 78% 30.11 in 10.0 mi North 4.6 mph - N/A   Clear
11:53 PM -5.1 °F -20.4 °F -13.0 °F 69% 30.07 in 10.0 mi NNE 8.1 mph - N/A   Clear